Location: Bennemühlen
(52.5740°N, 9.7135°E)
Time: 23:47:27
(UTC+00:00)

CZ-4C R/B - Pass Details

Date: 19 May 2025
Orbit: 425 x 537 km, 98.0° (Epoch: 22 June)

Event Time Altitude Azimuth Distance (km) Brightness Sun altitude
Rises 21:13:58 0° 22° (NNE) 2,617 7.4 -12.6°
Reaches altitude 10° 21:16:19 10° 35° (NE) 1,706 6.2 -12.8°
Maximum altitude 21:19:30 28° 95° (E) 944 4.2 -13.0°
Enters shadow 21:20:51 22° 133° (SE) 1,106 4.3 -13.1°
